Location: Newark
(5.8900°S, 42.6378°W)
Time: 16:22:08
(UTC+00:00)

OTV 5 (USA 277) - Pass Details

Date: 21 August 2019
Orbit: 295 x 339 km, 54.5° (Epoch: 08 September)

Event Time Altitude Azimuth Distance (km) Brightness Sun altitude
Rises 21:34:23 0° 228° (SW) 2,068 ? -11.1°
Reaches altitude 10° 21:36:32 10° 240° (WSW) 1,223 ? -11.7°
Maximum altitude 21:38:54 27° 302° (WNW) 645 ? -12.2°
Drops below altitude 10° 21:41:14 10° 3° (N) 1,193 ? -12.8°
Sets 21:43:18 0° 16° (NNE) 2,005 ? -13.3°
